Location: Arbon
(43.0005°N, 0.7472°E)
Time: 22:20:25
(UTC+00:00)

Explorer 7 - Pass Details

Date: 30 November 2020
Orbit: 484 x 678 km, 50.3° (Epoch: 25 January)

Event Time Altitude Azimuth Distance (km) Brightness Sun altitude
Rises 02:57:44 0° 267° (W) 2,911 - -45.0°
Reaches altitude 10° 03:00:14 10° 275° (W) 1,973 - -44.5°
Maximum altitude 03:04:28 39° 344° (NNW) 896 - -43.8°
Drops below altitude 10° 03:08:29 10° 54° (NE) 1,859 - -43.1°
Exits shadow 03:10:06 - 61° (ENE) 2,459 10.8 -42.8°
Sets 03:10:47 0° 63° (ENE) 2,721 11.1 -42.6°
